SHIYAN 12 01 (SY-12 01)

Last updated on Sat Apr 13 2024 01:02:40 GMT+0100 (British Summer Time)

1 50321U 21129A 24103.75594948 -.00000171 00000+0 00000+0 0 9995 2 50321 1.6159 92.0122 0000717 37.5370 62.2966 1.00465375 8539
UTC large
Height (km)
Speed (km/s)
/
Latitude / Longitude
Inclination (degrees)
Orbital Period (minutes)
Azimuth
Elevation
Range (km)
Doppler Factor

Next 0 passes for location: London (51.5072 / 0.1276)

Sorry there are no passes over London.